#timestamp,LO_Frequency,Hit,StdDev 
1634068815.3,286047000.8,N
1634068835.1,286046998.2,N
1634068836.0,286046998.2,N
1634068855.8,286046996.9,N
1634068875.7,286046998.7,N
1634068895.5,286046998.8,N
1634068915.3,286046997.0,N
1634068935.2,286046999.3,N
1634068955.0,286047000.8,N
1634068955.9,286047000.8,N
1634068975.8,286047000.2,N
1634068995.6,286047000.8,N
1634069015.4,286046998.1,N
1634069035.3,286047000.7,N
1634069055.1,286046998.7,N
1634069075.8,286046996.7,N
1634069095.7,286046997.4,N
1634069115.5,286046997.8,N
1634069135.4,286046997.2,N
1634069155.2,286046997.5,N
1634069175.0,286046994.9,Y
1634069175.9,286046994.9,P
1634069195.8,286046995.1,N
1634069215.6,286046996.0,N
1634069235.5,286046993.8,Y
1634069255.3,286046997.8,P
1634069275.1,286046996.8,P
1634069295.9,286046996.6,P
1634069315.7,286046997.0,Y
1634069335.6,286047000.4,P
1634069355.4,286047002.8,N
1634069375.2,286047002.1,N
1634069395.1,286047002.2,N
1634069396.0,286047002.2,N
1634069415.8,286047002.2,N
1634069435.7,286047002.6,N
1634069455.5,286047000.0,N
1634069475.3,286047000.2,N
1634069495.2,286047000.4,N
1634069515.0,286047002.4,N
1634069515.9,286047002.4,N
1634069535.8,286047000.7,N
1634069555.6,286047000.9,N
1634069575.4,286047001.0,N
1634069595.3,286047000.5,N
1634069615.1,286047001.0,N
1634069635.8,286046998.2,N
1634069655.7,286047002.7,N
1634069675.5,286047002.5,N
1634069695.4,286047002.5,N
1634069715.2,286047002.7,N
1634069735.0,286047002.4,N
1634069735.9,286047002.4,N
1634069755.8,286047002.3,N
1634069775.6,286047000.1,N
1634069795.4,286046999.8,N
1634069815.3,286047002.1,N
1634069835.1,286047002.1,N
1634069855.9,286047001.8,N
1634069875.7,286047002.7,N
1634069895.5,286046999.7,N
1634069915.4,286047000.1,N
1634069935.2,286046999.8,N
1634069955.1,286046998.1,N
1634069956.0,286046998.1,N
1634069975.8,286047001.1,N
1634069995.6,286047000.6,N
1634070015.5,286047000.7,N
1634070035.3,286047000.4,N
1634070055.1,286046998.8,N
1634070075.9,286046998.4,N
1634070095.7,286046998.2,N
1634070115.6,286046999.3,N
1634070135.4,286046998.6,N
1634070155.2,286046999.3,N
1634070175.1,286046999.1,N
1634070176.0,286046999.1,N
1634070195.8,286046996.6,N
1634070215.6,286046998.5,N
1634070235.5,286046999.4,N
1634070255.3,286046999.3,N
1634070275.2,286046998.4,N
1634070295.9,286046998.9,N
1634070315.7,286046999.1,N
1634070335.6,286046998.3,N
1634070355.4,286046999.9,N
1634070375.3,286046999.7,N
1634070395.1,286047002.5,N
1634070396.0,286047002.5,N
1634070415.8,286047002.0,N
1634070435.7,286047002.2,N
1634070455.5,286047002.5,N
1634070475.3,286047002.7,N
1634070495.2,286047002.2,N
1634070515.0,286047002.1,N
1634070515.9,286047002.1,N
1634070535.8,286047001.6,N
1634070555.6,286047000.2,N
1634070575.4,286047000.0,N
1634070595.3,286047000.8,N
1634070615.1,286046998.2,N
1634070635.9,286047001.2,N
1634070655.7,286046998.1,N
1634070675.5,286047000.3,N
1634070695.4,286047002.8,N
1634070715.2,286047000.2,N
1634070735.0,286047002.5,N
1634070735.9,286047002.5,N
1634070755.8,286047001.8,N
1634070775.6,286047001.6,N
1634070795.5,286047002.8,N
1634070815.3,286047002.3,N
1634070835.1,286047001.0,N
1634070855.9,286046999.9,N
1634070875.7,286047001.0,N
1634070895.5,286047000.6,N
1634070915.4,286046998.5,N
1634070935.2,286047000.3,N
1634070955.1,286046999.8,N
1634070956.0,286046999.8,N
1634070975.8,286046999.8,N
1634070995.6,286047000.8,N
1634071015.5,286046999.7,N
1634071035.3,286047002.6,N
1634071055.1,286046999.9,N
1634071075.9,286047002.7,N
1634071095.7,286047002.4,N
1634071115.6,286047002.8,N
1634071135.4,286047002.7,N
1634071155.2,286047000.2,N
1634071175.1,286047000.0,N
1634071176.0,286047000.0,N
1634071195.8,286047000.6,N
1634071215.7,286047000.4,N
1634071235.5,286046999.9,N
1634071255.3,286047002.8,N
1634071275.2,286047001.6,N
1634071295.9,286047001.6,N
1634071315.7,286047001.9,N
1634071335.6,286047001.3,N
1634071355.4,286047001.9,N
1634071375.3,286047002.1,N
1634071395.1,286047001.9,N
1634071396.0,286047001.9,N
1634071415.8,286047001.6,N
1634071435.7,286047002.7,N
1634071455.5,286046999.7,N
1634071475.4,286047002.8,N
1634071495.2,286047001.6,N
1634071515.0,286047002.0,N
1634071515.9,286047002.0,N
1634071535.8,286047002.8,N
1634071555.6,286047002.5,N
1634071575.4,286047002.0,N
1634071595.3,286047002.5,N
1634071615.1,286047002.1,N
1634071635.9,286047002.3,N
1634071655.7,286047000.1,N
1634071675.5,286046999.7,N
1634071695.4,286047002.1,N
1634071715.2,286047002.1,N
1634071735.0,286047001.8,N
1634071735.9,286047001.8,N
1634071755.8,286047004.4,Y
1634071775.6,286046999.7,P
1634071795.5,286047002.0,N
1634071815.3,286047003.9,P
1634071835.1,286047001.7,N
1634071855.9,286047001.7,N
1634071875.7,286047002.3,N
1634071895.5,286047002.2,N
1634071915.4,286047002.3,N
1634071935.2,286046999.8,N
1634071955.1,286047000.2,N
1634071956.0,286047000.2,N
1634071975.8,286047000.9,N
1634071995.6,286047000.4,N
1634072015.5,286046999.8,N
1634072035.3,286046999.7,N
1634072055.1,286047002.6,N
1634072075.9,286047002.5,N
1634072095.7,286047002.6,N
1634072115.6,286047002.3,N
1634072135.4,286046999.7,N
1634072155.2,286047000.0,N
1634072175.1,286046998.2,N
1634072176.0,286046998.2,N
1634072195.8,286046998.1,N
1634072215.7,286047001.0,N
1634072235.5,286047001.2,N
1634072255.3,286047001.1,N
1634072275.2,286047000.7,N
1634072295.9,286047002.4,N
1634072315.7,286047002.0,N
1634072335.6,286047001.5,N
1634072355.4,286047001.6,N
1634072375.3,286047002.5,N
1634072395.1,286047001.7,N
